Location: Athens-Covington-Pier
(33.9360°N, 83.4200°W)
Time: 09:28:24
(UTC-04:00)

ISS - Visible Passes

Search period start: 19 October 2019 00:00
Search period end: 29 October 2019 00:00
Orbit: 411 x 421 km, 51.6° (Epoch: 19 October)

Date Brightness Start Highest point End Pass type
(mag) Time Alt. Az. Time Alt. Az. Time Alt. Az.
22 Oct -1.8 06:58:12 10° SSW 07:01:12 30° SE 07:04:12 10° ENE visible
23 Oct -0.8 06:10:37 10° SSE 06:12:46 16° SE 06:14:56 10° E visible
24 Oct -3.8 06:57:17 10° SW 07:00:38 72° NW 07:04:00 10° NE visible
25 Oct -3.2 06:11:26 45° S 06:12:04 55° SE 06:15:23 10° NE visible
26 Oct -0.6 05:25:39 15° E 05:25:39 15° E 05:26:29 10° ENE visible
26 Oct -2.4 06:58:36 17° WNW 07:00:16 24° NW 07:03:06 10° NNE visible
27 Oct -2.5 06:12:34 31° N 06:12:34 31° N 06:14:46 10° NNE visible
28 Oct -1.5 06:59:18 11° NW 07:00:06 11° NNW 07:01:14 10° N visible
